Weather History for KFTK - July, 2013

Change the Weather History Date:

Saturday, July 13, 2013

  Actual Average Record
Temperature  
Mean Temperature 71 °F -  
Max Temperature 80 °F 83 °F 92 °F (2014)
Min Temperature 62 °F 64 °F 57 °F (2001)
Cooling Degree Days 6    
Growing Degree Days 21 (Base 50)    
Moisture  
Dew Point 62 °F    
Average Humidity 73    
Maximum Humidity 90    
Minimum Humidity 55    
Precipitation  
Precipitation 0.00 in - - ()
Sea Level Pressure  
Sea Level Pressure 30.05 in    
Wind  
Wind Speed 7 mph (NE)    
Max Wind Speed 18 mph    
Max Gust Speed 36 mph    
Visibility 10 miles    
Events Rain    
Averages and records for this station are not official NWS values.
T = Trace of Precipitation, MM = Missing Value Source: NWS Daily Summary

Daily Weather History Graph

Daily Weather History Graph

Search for Another Location

Airport or City:

Trip Planner

Search our weather history database for the weather conditions in past years. The results will help you decide how hot, cold, wet, or windy it might be!

Date:

Astronomy

Jul. 13, 2013 Rise Set
Actual Time 6:32 AM EDT 9:06 PM EDT
Civil Twilight 6:01 AM EDT 9:37 PM EDT
Nautical Twilight 5:23 AM EDT 10:15 PM EDT
Astronomical Twilight 4:41 AM EDT 10:57 PM EDT
Moon 11:41 AM EDT (7/13) 11:53 PM EDT (7/13)
Length of Visible Light 15h 35m
Length of Day
14h 34m
Waxing Crescent, 25% of the Moon is Illuminated
Jul 13
Waxing Crescent
Jul 15
First Quarter
Jul 22
Full
Jul 29
Last Quarter
Aug 6
New

Hourly Weather History & Observations

Time (EDT) Temp. Heat Index Dew Point Humidity Pressure Visibility Wind Dir Wind Speed Gust Speed Precip Events Conditions
12:58 AM 64.4 °F - 59.2 °F 83% 30.04 in 10.0 mi North 5.8 mph - N/A   Clear
1:58 AM 63.5 °F - 59.5 °F 87% 30.04 in 10.0 mi North 6.9 mph - N/A   Clear
2:58 AM 63.9 °F - 59.0 °F 84% 30.03 in 10.0 mi North 3.5 mph - N/A   Clear
3:58 AM 63.7 °F - 59.7 °F 87% 30.02 in 10.0 mi North 8.1 mph - N/A   Clear
4:58 AM 62.6 °F - 59.7 °F 90% 30.03 in 10.0 mi North 8.1 mph - N/A   Clear
5:58 AM 63.0 °F - 59.7 °F 89% 30.04 in 10.0 mi NNE 5.8 mph - N/A   Clear
6:58 AM 62.4 °F - 59.5 °F 90% 30.05 in 10.0 mi NE 4.6 mph - N/A   Partly Cloudy
7:58 AM 65.8 °F - 61.0 °F 84% 30.06 in 10.0 mi NNE 6.9 mph - N/A   Scattered Clouds
8:58 AM 66.0 °F - 61.2 °F 84% 30.06 in 10.0 mi North 5.8 mph - N/A   Partly Cloudy
9:58 AM 70.3 °F - 62.1 °F 75% 30.07 in 10.0 mi NE 9.2 mph - N/A   Partly Cloudy
10:58 AM 73.0 °F - 61.9 °F 68% 30.07 in 10.0 mi NE 8.1 mph - N/A   Clear
11:58 AM 77.2 °F - 63.9 °F 63% 30.07 in 10.0 mi ENE 10.4 mph - N/A   Clear
12:58 PM 78.4 °F - 65.1 °F 63% 30.06 in 10.0 mi NE 9.2 mph - N/A   Partly Cloudy
1:58 PM 78.4 °F - 64.9 °F 63% 30.06 in 10.0 mi NE 6.9 mph - N/A   Scattered Clouds
2:58 PM 79.5 °F - 65.3 °F 62% 30.06 in 10.0 mi ENE 10.4 mph - N/A   Mostly Cloudy
3:58 PM 80.6 °F 82.4 °F 65.3 °F 59% 30.04 in 10.0 mi ENE 9.2 mph - N/A   Scattered Clouds
4:58 PM 76.6 °F - 59.2 °F 55% 30.05 in 10.0 mi ESE 18.4 mph 35.7 mph N/A   Scattered Clouds
5:57 PM 73.4 °F - 59.0 °F 61% 30.05 in 10.0 mi East 11.5 mph - N/A Rain Light Rain
5:58 PM 74.1 °F - 59.4 °F 60% 30.05 in 10.0 mi East 11.5 mph - N/A Rain Light Rain
6:19 PM 75.2 °F - 60.8 °F 61% 30.04 in 10.0 mi East 8.1 mph - N/A   Partly Cloudy
6:58 PM 75.6 °F - 64.2 °F 68% 30.05 in 10.0 mi East 6.9 mph - 0.00 in   Partly Cloudy
7:58 PM 76.6 °F - 66.2 °F 70% 30.06 in 10.0 mi East 6.9 mph - N/A   Clear
8:58 PM 75.7 °F - 68.2 °F 77% 30.06 in 10.0 mi East 6.9 mph - N/A   Clear
9:58 PM 74.3 °F - 66.7 °F 77% 30.08 in 10.0 mi ENE 6.9 mph - N/A   Clear
10:58 PM 72.7 °F - 64.6 °F 76% 30.09 in 10.0 mi ENE 6.9 mph - N/A   Clear